Temp
16 16 16 15 15 15 15 16 16 15 15 15 15 15 15 15 15 15 15 14 14 14 14 14 14 14 14 14 14 15 15 15 15 15 15 15 15 15 16 16 16 16 16 16 16 16 16 16 15 15 15 15 15 15 15 15 15 14 14 13 13 13 13 13 13 13 13 12 12
16 16 16 16 15 15 15 16 16 15 15 15 15 15 15 15 15 15 15 14 14 14 14 14 14 14 14 14 14 15 15 15 15 15 15 15 15 15 15 15 16 16 16 16 16 16 16 15 15 15 15 15 15 15 15 14 14 14 13 13 13 13 13 13 13 13 13 12 12
16 16 16 16 15 15 15 15 15 15 15 15 16 15 15 15 15 15 15 15 15 15 14 14 14 14 14 14 14 14 14 15 15 15 15 15 15 15 15 15 15 15 16 16 16 16 15 15 15 14 14 14 14 14 14 14 14 13 13 13 13 13 13 13 13 13 12 12 12
16 16 16 16 15 15 15 15 16 16 15 16 16 16 16 15 15 15 15 15 15 15 14 14 14 14 14 14 14 14 14 14 14 14 15 15 15 15 15 15 15 15 15 16 15 15 15 15 14 14 14 14 14 14 14 14 13 13 13 13 13 13 13 13 13 13 12 12 12
16 16 16 16 16 16 16 16 16 16 16 16 16 16 16 15 15 15 15 15 15 15 15 15 15 14 14 14 14 14 14 14 14 14 14 14 14 14 14 14 15 15 15 15 15 15 14 14 14 13 13 13 14 14 14 14 13 13 13 13 12 12 12 12 12 12 12 12 12
16 16 16 16 16 16 16 16 16 16 16 16 16 16 16 15 15 15 15 15 15 15 15 15 15 15 14 14 14 14 14 14 14 14 14 14 14 14 14 14 14 14 15 15 14 14 14 13 13 13 13 13 13 13 13 13 13 13 12 12 12 12 12 12 12 12 12 12 11
17 17 16 16 16 16 16 16 16 16 16 16 16 16 16 16 15 15 15 15 15 15 15 15 15 15 14 14 14 14 14 14 14 14 14 14 14 13 13 14 14 14 14 14 13 13 13 13 13 12 12 12 12 13 13 13 12 12 12 12 12 12 12 12 12 12 12 11 11
17 17 17 16 16 16 16 16 16 16 16 16 16 16 16 16 16 16 15 15 15 15 15 15 14 14 14 14 14 14 14 14 14 14 14 14 13 13 13 13 13 13 13 13 12 12 12 12 12 12 12 12 12 12 12 12 12 12 12 12 12 12 12 12 12 12 11 11 11
17 17 17 17 16 16 16 16 16 16 15 16 16 16 16 16 16 16 16 15 15 15 15 15 14 14 14 14 14 14 14 14 14 14 13 13 13 13 13 13 13 12 12 12 12 12 12 12 12 12 12 12 12 12 12 12 11 12 12 12 12 12 12 12 12 11 11 11 11
17 17 17 17 17 16 16 16 16 16 16 16 16 16 16 16 16 16 16 15 15 15 15 15 15 14 14 14 14 14 14 14 14 13 13 13 13 13 12 12 12 11 11 11 11 11 11 11 12 12 12 12 12 12 11 11 11 11 12 12 12 12 12 11 11 11 11 11 11
17 17 17 17 17 17 16 16 16 16 16 15 16 16 16 16 16 16 16 16 15 15 15 15 15 15 14 14 14 14 14 14 14 13 13 13 13 12 12 12 11 11 11 11 11 11 11 11 11 12 11 11 11 11 11 11 11 11 12 12 11 11 11 11 11 11 11 11 11
17 17 17 17 17 17 16 16 16 16 16 15 15 15 15 16 16 16 16 15 15 15 15 15 15 15 15 14 14 14 14 14 14 13 13 13 12 12 11 11 11 11 11 11 11 11 11 11 11 11 11 11 11 10 10 11 11 11 11 11 11 11 10 11 11 11 11 11 11
17 17 17 17 17 17 17 16 16 16 16 15 15 15 15 15 15 15 15 15 15 15 15 15 15 15 15 14 14 14 14 14 13 13 13 13 12 11 11 11 11 11 11 11 11 11 11 11 11 11 11 10 10 10 11 11 11 11 11 10 10 10 10 10 11 11 11 11 10
18 18 18 18 18 17 17 16 16 16 16 16 15 15 15 15 15 15 15 15 15 15 15 15 15 15 15 14 14 14 14 13 13 13 12 12 12 12 11 11 11 11 11 11 11 11 11 11 11 11 11 10 10 11 11 11 11 11 10 10 10 10 10 10 10 11 10 10 10
18 18 18 18 18 18 17 17 17 16 16 16 16 16 15 15 15 15 15 15 15 15 15 15 14 14 14 14 14 14 13 13 13 12 12 12 12 12 11 11 11 11 11 11 11 11 11 11 11 11 11 11 11 11 11 11 11 10 10 10 10 10 10 10 10 10 10 10 10
18 18 18 18 18 18 18 17 17 17 17 16 16 16 16 16 16 15 15 15 15 15 15 14 14 14 14 14 14 13 13 12 12 12 12 12 12 12 12 12 12 12 12 11 11 11 11 11 11 11 11 11 11 11 11 11 11 10 10 9 9 10 10 10 10 10 9 9 9
18 18 18 18 18 18 18 18 17 17 17 17 16 16 16 16 16 16 15 15 15 15 14 14 14 14 14 13 13 13 12 12 12 12 12 12 12 12 12 12 12 12 12 11 11 11 11 11 11 11 11 11 11 11 11 11 11 10 10 9 9 9 9 10 9 9 9 9 8
18 18 18 18 18 18 18 18 18 18 17 17 17 17 16 16 16 16 16 15 15 15 14 14 14 14 13 13 13 12 12 12 12 12 12 12 12 12 12 12 12 12 11 11 11 11 11 11 11 11 11 11 11 10 10 10 10 10 10 9 9 9 9 9 9 9 8 8 8
18 18 18 18 18 18 18 18 18 18 18 17 17 17 16 16 16 16 16 15 15 15 15 14 14 14 13 13 12 12 12 12 12 12 12 12 12 12 12 12 12 11 11 11 11 11 11 11 11 11 11 10 10 10 10 10 10 10 9 9 9 9 9 8 8 8 8 8 8
18 18 18 18 18 18 18 18 18 18 18 18 17 17 17 16 16 16 16 16 15 15 15 14 14 13 13 13 12 12 12 12 12 12 12 12 12 12 12 12 11 11 11 11 11 11 11 11 11 11 10 10 10 10 10 10 10 10 9 9 8 8 8 8 8 8 8 8 7
19 19 19 18 18 18 18 18 18 18 18 18 18 17 17 17 16 16 16 16 16 15 15 14 14 13 13 13 13 12 12 12 12 12 12 12 12 12 11 11 11 11 11 11 11 11 11 11 11 10 10 10 10 10 10 10 10 9 9 8 8 8 7 7 7 7 8 7 7
19 19 19 19 19 18 18 18 18 18 18 18 18 17 17 17 17 16 16 16 16 15 15 14 14 13 13 13 13 13 12 12 12 12 11 11 11 11 11 11 11 11 11 11 11 11 11 10 10 10 10 10 10 10 10 10 10 9 8 8 7 7 7 7 7 7 7 7 7
19 19 19 19 19 19 18 18 18 18 18 18 18 17 17 17 17 16 16 16 16 15 15 14 14 14 13 13 13 12 12 12 12 11 11 11 10 10 10 10 10 11 11 11 11 11 10 10 9 9 9 10 10 10 10 10 9 9 8 7 7 6 6 6 6 7 7 7 7
20 19 19 19 19 19 19 18 18 18 18 18 18 18 17 17 17 16 16 16 16 15 15 14 14 14 13 13 13 12 12 12 11 11 11 10 9 9 9 9 9 9 10 10 11 11 11 10 9 9 9 9 9 9 9 9 8 8 7 6 6 6 6 6 6 7 7 7 7
20 20 19 19 19 19 19 19 18 18 17 17 17 17 17 16 16 16 16 16 16 15 15 14 14 14 13 13 13 12 12 11 11 11 10 9 9 9 8 8 9 9 9 10 10 11 10 10 9 9 9 9 9 8 8 8 8 7 7 6 6 6 6 6 6 6 6 6 7
20 20 19 19 19 19 19 18 18 17 17 17 17 17 16 16 16 16 16 16 15 15 15 14 14 13 13 13 12 12 11 11 11 10 9 9 9 9 9 9 9 9 9 9 10 10 10 9 9 9 9 8 8 8 8 8 7 7 7 6 6 6 6 6 6 6 6 6 6
20 19 19 19 19 19 19 18 17 17 17 18 17 16 16 16 16 16 16 16 15 15 14 14 13 13 13 12 12 12 11 10 10 9 9 9 10 10 10 9 9 9 9 9 9 9 9 9 9 9 9 8 8 8 8 7 7 7 7 6 6 6 6 6 6 6 6 6 6
19 19 19 19 19 19 19 18 17 17 17 18 17 16 16 16 16 16 16 15 15 14 14 13 13 13 12 12 11 11 10 10 10 10 10 10 11 11 10 10 9 9 9 9 9 9 9 9 9 9 9 9 8 8 8 7 7 7 6 6 6 6 6 6 6 6 6 6 6
20 19 19 19 19 19 19 18 17 17 17 18 17 17 16 16 16 16 16 15 15 14 13 13 13 12 12 11 11 10 10 10 10 11 11 11 11 11 10 9 9 9 9 9 9 9 9 9 9 9 9 9 8 8 8 7 7 7 6 6 6 6 6 6 6 6 6 5 5
20 19 19 19 19 19 18 18 18 18 18 18 17 17 16 16 16 16 16 15 14 14 13 13 12 12 11 11 10 10 10 11 11 11 11 11 10 10 9 9 9 9 9 9 9 9 9 9 9 9 9 9 9 8 8 7 7 7 6 6 6 6 6 6 6 6 6 5 5
19 19 19 19 18 18 18 18 18 18 18 18 17 17 17 16 16 16 15 15 14 13 13 12 12 11 11 10 10 10 11 11 11 11 11 11 10 9 9 9 9 9 9 9 9 9 9 9 9 9 9 9 9 8 8 7 7 7 7 6 6 6 6 6 6 6 6 5 5
19 18 18 18 18 18 18 17 18 18 18 18 17 17 17 16 16 16 15 14 13 13 12 12 11 11 10 10 10 11 11 11 11 11 11 10 10 9 9 9 9 9 9 9 9 10 10 10 10 10 9 9 9 9 8 7 7 7 7 6 6 6 6 6 6 6 6 6 5
18 17 17 17 17 17 17 17 17 17 17 17 17 17 17 16 16 16 15 14 13 12 12 11 11 10 10 9 10 11 11 11 11 11 11 10 10 9 9 9 9 9 9 9 9 10 10 10 10 10 10 10 9 9 8 7 7 7 6 6 6 6 6 6 6 6 6 6 6
18 17 16 16 16 16 16 16 16 16 17 17 17 17 16 16 16 15 15 14 13 12 11 11 11 10 10 10 10 11 11 11 11 11 10 10 10 9 9 9 9 9 9 9 9 9 10 10 10 10 10 10 9 9 8 7 7 6 6 6 6 6 6 6 6 6 6 6 6
17 16 16 16 16 15 15 15 15 16 16 16 16 16 16 16 15 15 14 13 12 11 11 11 11 10 10 10 10 11 11 11 11 10 10 10 9 9 9 9 9 9 9 9 9 10 10 10 10 10 10 10 9 9 8 7 7 6 6 6 6 6 6 6 6 6 6 6 5
17 16 15 15 15 15 14 14 15 15 15 15 15 15 15 15 15 14 14 13 12 11 10 10 10 10 10 10 11 11 11 11 10 10 10 9 9 9 9 9 9 9 9 9 9 10 10 10 10 10 10 10 9 9 8 7 7 6 6 6 6 6 6 6 6 6 5 5 5
16 16 15 15 14 14 14 14 14 14 14 14 14 14 14 14 14 14 13 12 12 11 11 10 10 10 11 11 11 11 11 11 10 10 10 9 9 9 9 9 9 9 9 10 10 10 10 10 10 10 10 9 9 8 8 7 6 6 6 6 6 6 6 6 6 5 5 5 5
16 15 15 14 14 13 13 13 13 13 13 13 13 13 13 13 13 13 13 12 12 11 11 11 10 11 11 11 11 11 11 11 10 10 10 10 9 9 9 9 9 10 10 10 10 10 10 10 10 10 10 9 9 8 7 7 6 6 6 6 6 6 6 5 5 5 5 5 5
15 15 14 14 13 13 13 13 13 13 13 13 13 13 13 13 13 12 12 12 12 11 11 11 11 11 11 11 11 11 11 11 10 10 10 10 10 10 10 10 10 10 10 10 10 10 10 10 10 10 10 9 9 8 7 7 6 6 6 6 6 5 5 5 5 5 5 5 5
15 14 14 14 13 13 13 13 13 13 13 13 13 13 13 13 13 12 12 12 12 12 12 11 11 11 11 11 11 11 10 10 10 10 10 10 10 10 10 10 10 10 10 10 10 10 10 10 10 10 10 9 9 8 7 7 6 6 6 5 5 5 5 4 4 4 4 4 4
15 15 15 14 14 14 14 14 14 14 14 14 14 13 13 13 13 13 12 12 12 12 12 11 11 11 11 11 11 11 10 10 10 10 10 10 10 10 10 10 10 10 10 10 10 10 10 10 10 10 10 9 9 8 7 7 6 6 6 5 5 5 4 4 3 3 3 3 3
Height
780 781 782 783 784 785 785 786 787 788 789 790 790 791 792 793 794 794 795 795 795 795 795 796 796 797 798 799 799 800 800 801 802 803 803 804 805 805 806 806 807 808 809 810 811 812 813 813 814 815 815 815 816 817 817 818 819 819 820 821 822 823 824 825 825 827 828 829 830
779 780 780 781 782 783 784 785 786 787 787 788 789 790 790 791 792 792 793 793 793 793 794 795 795 795 796 797 797 798 798 799 800 800 801 802 802 803 804 805 805 806 807 808 809 810 810 811 812 812 813 814 815 815 816 816 817 818 819 820 820 821 822 823 824 825 826 827 828
777 778 779 780 780 781 782 783 784 785 785 786 787 788 789 789 790 790 790 791 791 792 792 793 793 794 794 795 795 795 796 797 798 798 799 800 800 801 802 802 803 804 805 806 807 808 808 809 810 810 811 811 812 813 814 814 815 816 817 818 819 820 821 822 822 824 825 826 827
775 776 777 777 778 779 779 780 781 782 783 784 785 786 787 787 788 788 789 789 790 790 790 790 791 791 792 792 793 793 794 795 795 796 797 797 798 799 800 800 801 802 803 804 805 805 806 807 808 808 809 809 810 810 811 812 814 815 816 817 817 819 819 820 821 822 823 824 825
773 774 774 775 775 776 777 778 779 780 781 782 784 785 785 785 786 786 787 787 787 787 787 787 788 789 790 790 791 791 792 793 794 795 795 795 796 797 798 799 799 800 801 802 803 804 805 805 807 807 807 808 808 809 810 811 813 814 815 815 816 817 818 819 820 821 822 823 824
770 771 772 772 773 774 775 776 777 778 779 780 781 782 782 783 784 784 784 785 784 784 785 785 786 787 788 788 789 790 790 791 792 792 793 794 794 795 796 797 798 799 800 800 801 802 803 805 806 806 807 807 808 809 810 811 812 813 813 814 815 816 817 818 819 820 821 822 823
767 769 770 770 771 772 773 774 775 776 777 778 778 779 779 780 780 781 781 781 782 783 783 784 784 785 786 786 787 787 788 789 789 790 791 791 792 793 794 795 796 797 798 799 800 801 803 804 805 806 807 808 809 810 810 810 811 812 812 813 814 815 816 817 818 818 819 820 821
765 766 767 768 769 769 770 771 773 774 775 775 775 775 775 776 777 778 779 780 780 781 781 782 782 783 784 784 785 785 785 786 787 788 789 789 790 791 792 793 794 795 797 798 800 801 803 805 806 806 807 808 809 810 810 810 810 811 811 812 813 814 815 815 816 817 818 819 820
763 764 765 765 766 767 768 769 770 771 772 772 772 772 773 774 775 776 776 777 778 778 779 780 780 780 781 782 782 783 783 784 785 786 786 787 788 789 790 792 793 795 797 800 801 803 804 805 806 807 807 808 809 809 810 810 810 810 811 812 812 813 814 815 815 816 817 818 819
760 761 762 764 764 765 766 767 769 769 769 769 769 770 771 772 773 773 774 775 775 776 777 777 778 778 779 780 780 781 781 782 783 784 785 785 786 788 790 792 795 797 799 802 804 805 805 805 806 806 806 806 808 809 810 810 811 811 811 812 812 813 813 813 814 815 816 817 818
757 759 760 761 762 764 765 766 767 767 767 767 768 768 769 770 770 771 772 773 774 775 775 775 775 776 777 777 778 779 779 780 781 782 783 784 785 787 790 794 797 800 802 803 805 805 805 805 805 805 805 806 807 809 810 812 813 813 813 812 812 812 812 812 813 814 815 815 816
756 757 759 760 762 763 764 765 765 766 766 766 766 767 767 768 768 769 770 771 772 772 772 773 774 774 775 775 776 777 778 778 779 780 782 783 785 789 792 796 799 801 802 803 804 804 804 804 804 805 806 806 807 808 810 813 814 814 814 813 812 812 811 812 812 813 814 815 815
755 757 758 760 761 762 763 763 764 764 765 764 765 765 765 765 766 767 769 770 770 770 770 771 772 772 773 773 774 775 776 777 778 779 781 784 787 791 794 797 799 801 802 802 802 802 802 802 803 804 805 805 805 806 808 810 812 813 813 813 812 811 811 811 812 813 813 814 815
754 755 757 758 760 761 761 762 762 762 763 763 763 763 764 764 765 766 766 767 767 767 768 770 770 770 771 771 772 773 774 775 777 780 783 786 790 792 795 796 798 799 800 799 799 800 800 800 801 802 803 803 804 804 805 806 808 810 811 812 812 811 811 812 813 813 814 814 815
752 753 755 756 758 758 759 759 759 760 760 760 760 761 762 762 763 764 764 765 765 765 767 768 768 768 769 770 771 772 774 776 779 782 785 788 790 792 793 794 795 795 795 795 796 796 798 798 799 800 800 801 801 802 802 803 805 808 810 811 812 812 812 813 814 814 814 814 815
749 751 752 753 754 755 755 755 755 756 756 757 757 758 759 760 761 761 762 762 763 764 765 765 766 766 767 769 771 773 776 779 781 784 786 788 789 790 790 790 790 790 790 791 793 794 795 796 797 798 798 798 799 800 800 801 803 805 807 809 810 811 812 813 813 813 813 813 813
746 748 749 750 750 750 750 750 751 752 752 752 753 754 755 756 757 759 759 760 760 761 762 763 764 765 767 769 772 775 778 780 782 783 784 785 786 786 786 786 785 785 787 789 791 793 794 795 795 795 796 796 797 798 799 800 800 802 804 806 808 810 810 811 811 811 811 811 811
741 743 745 745 745 745 746 747 747 747 747 748 748 750 751 752 754 755 755 756 757 758 760 760 762 765 768 770 773 775 778 779 779 780 780 780 781 782 782 782 782 783 785 788 790 792 793 793 793 794 794 795 795 796 797 797 798 800 801 804 805 807 808 809 809 809 809 809 809
736 737 738 740 741 742 744 744 744 744 744 744 746 748 749 750 751 752 753 754 754 755 757 759 762 765 769 771 773 775 776 776 776 776 777 777 778 778 779 780 781 784 786 788 789 790 790 791 791 792 793 794 794 795 795 795 796 798 800 801 803 805 805 806 806 806 806 807 807
732 733 734 735 735 736 737 738 739 740 741 743 746 748 749 750 750 751 751 752 752 754 755 758 761 765 768 770 771 772 772 773 773 774 775 775 776 777 778 780 782 784 785 786 787 787 788 789 789 790 792 793 793 793 793 794 795 796 798 799 801 802 803 804 804 804 805 805 805
729 730 731 731 732 732 732 733 735 738 740 744 746 747 749 749 750 750 750 750 751 753 755 757 760 763 765 766 767 768 768 769 770 771 773 775 776 777 779 780 782 783 784 785 785 785 786 787 788 789 790 792 792 792 792 792 792 793 794 796 797 799 800 801 802 802 802 803 804
724 725 726 728 729 730 732 733 735 737 739 741 743 745 747 748 748 747 747 748 750 752 754 755 757 759 760 761 762 764 765 766 768 770 772 774 776 777 779 780 781 782 783 784 784 784 785 785 786 788 789 790 790 790 790 789 789 790 790 792 793 795 796 798 799 800 800 800 801
719 721 723 725 727 729 730 732 734 735 736 737 738 740 741 743 743 743 745 746 748 750 751 753 754 755 756 757 759 760 763 765 767 769 770 772 774 776 778 780 781 782 783 783 783 783 783 784 785 786 786 787 787 787 787 787 787 787 789 790 792 794 795 796 796 797 798 799 799
715 718 720 722 724 726 728 730 730 731 731 732 735 735 735 735 737 740 742 744 746 747 749 750 751 752 753 755 757 759 761 763 765 767 769 770 772 775 777 779 781 782 782 783 783 782 782 782 783 783 784 784 784 784 785 785 786 787 788 790 792 793 795 795 795 796 796 797 797
713 715 717 720 722 723 725 726 726 726 727 729 731 732 733 734 736 738 740 741 743 744 745 746 748 749 751 753 755 757 759 761 763 765 767 769 771 774 777 779 780 780 780 780 780 780 780 780 780 780 780 781 782 782 783 784 785 785 787 788 790 792 793 794 794 794 795 795 796
710 712 715 716 719 720 721 722 722 722 723 725 728 730 732 734 736 738 739 740 741 742 743 744 746 747 749 751 753 755 757 760 762 764 766 769 772 775 776 777 777 776 776 776 776 776 776 776 776 777 778 780 780 781 782 782 783 784 785 786 788 789 791 791 792 792 792 793 794
708 710 711 713 715 717 718 719 719 720 721 723 726 728 730 732 735 736 737 738 739 740 741 743 744 746 747 749 751 753 755 758 760 762 765 769 772 773 772 771 770 770 770 770 770 771 771 773 774 776 777 778 779 780 780 780 781 782 783 784 786 787 788 789 789 790 790 791 792
705 707 708 710 712 714 715 716 718 719 720 721 723 725 727 730 733 734 735 736 738 739 740 741 743 744 746 747 749 750 753 755 758 761 765 767 768 767 765 763 763 764 764 765 766 768 769 771 773 775 775 776 777 778 778 779 780 780 781 782 784 785 785 786 787 788 789 789 790
702 704 705 707 709 710 712 714 715 716 717 719 721 723 726 728 730 732 733 735 736 738 739 740 741 743 744 745 746 748 750 753 756 760 762 763 760 758 757 758 760 761 762 763 765 766 768 769 770 772 773 774 775 776 776 777 778 778 779 780 781 782 783 784 785 786 787 787 788
699 700 702 704 705 707 709 710 712 713 715 717 720 722 725 726 728 730 731 733 734 735 737 738 740 741 742 743 744 745 748 751 754 756 757 756 754 754 755 757 758 759 760 762 763 764 765 766 768 769 770 772 773 774 774 775 775 776 777 778 779 780 780 781 783 784 785 785 786
696 697 699 701 703 704 705 706 708 711 714 716 719 721 723 724 726 728 729 731 732 734 735 737 738 739 740 741 742 743 745 748 750 752 753 752 752 753 754 756 757 758 759 760 761 762 763 764 765 766 768 769 771 771 772 772 773 774 775 775 776 777 778 780 781 782 783 784 785
694 695 697 699 700 702 703 705 707 710 712 715 717 719 720 722 724 726 728 729 731 733 734 735 736 737 739 740 740 741 743 746 748 750 750 750 751 752 753 754 755 756 758 759 760 760 761 762 763 764 765 767 768 769 770 770 771 772 773 774 775 775 776 778 779 780 781 782 783
693 695 696 697 699 700 703 705 707 709 711 713 715 717 719 720 723 725 727 729 730 731 732 733 735 736 737 739 740 741 743 745 746 747 747 748 749 750 751 752 753 754 755 757 758 758 759 760 761 762 763 765 766 767 768 769 770 771 772 773 773 774 775 776 777 778 779 780 781
692 695 696 697 700 702 704 706 708 709 711 712 714 715 717 720 722 724 726 728 729 730 731 732 734 735 736 738 740 741 743 744 745 745 745 745 746 748 749 750 751 752 753 754 755 756 757 757 759 760 761 763 765 766 767 768 769 770 771 771 772 773 774 775 775 776 777 779 779
692 695 697 699 702 704 705 706 708 709 711 712 714 715 717 719 720 723 725 726 728 730 731 733 734 735 736 738 740 741 742 742 742 742 743 744 745 746 746 747 748 749 750 751 752 753 754 755 757 758 760 762 763 765 766 767 768 769 770 770 771 772 773 774 775 775 776 777 778
692 695 697 700 702 703 705 706 707 709 711 712 714 715 716 718 720 722 724 725 727 729 731 732 734 735 736 737 739 740 740 740 739 740 741 742 743 744 744 745 745 747 748 749 750 751 752 754 755 757 759 760 762 763 765 765 767 768 769 770 770 771 772 773 774 775 776 776 777
692 694 697 699 701 702 703 705 707 709 710 712 713 715 716 718 720 721 723 725 726 728 730 731 732 733 733 734 735 736 737 737 738 739 740 740 741 742 742 743 744 745 746 747 748 750 751 752 754 756 758 759 761 762 763 764 765 767 768 769 770 770 771 772 773 774 775 775 776
691 693 695 697 699 701 703 705 706 708 710 711 713 715 717 718 720 721 723 724 725 727 729 730 731 731 731 732 733 734 735 736 736 737 738 739 740 740 741 741 742 743 744 745 747 748 750 751 753 755 756 758 759 760 762 763 764 765 766 768 769 770 771 772 772 773 774 774 775
690 692 694 696 698 700 702 705 706 708 710 711 713 715 717 719 720 722 723 725 726 727 728 728 729 729 730 731 732 733 734 735 735 735 736 737 738 739 740 740 741 741 743 744 745 747 749 750 752 753 755 756 757 759 760 761 763 764 765 766 768 769 769 770 770 771 772 772 773
688 691 693 696 698 700 702 704 706 709 710 711 712 714 716 719 720 722 724 725 726 727 728 727 727 728 729 730 731 731 732 733 734 734 735 736 737 738 739 739 740 741 742 743 745 746 748 749 750 752 753 755 756 757 759 760 762 763 764 765 766 767 767 768 769 770 770 771 771
686 689 691 694 696 698 700 702 704 706 707 709 709 711 713 716 718 720 723 724 725 725 726 725 726 726 727 729 730 730 731 732 732 733 734 735 736 737 738 739 740 741 742 743 744 745 747 748 749 750 752 753 754 756 757 759 761 762 763 764 765 765 766 766 767 768 769 770 770
Wind_Speed
28 28 28 28 29 29 29 28 28 27 27 28 27 27 28 28 28 29 30 31 31 32 33 33 34 35 35 36 37 39 40 41 41 40 40 40 40 40 39 39 39 38 38 37 37 36 36 36 36 36 36 35 34 33 33 32 32 31 30 29 29 28 27 27 26 25 25 25 25
30 29 29 29 30 30 30 29 28 28 29 29 29 29 29 29 29 30 30 31 32 33 33 34 34 35 35 37 38 39 40 41 42 42 42 41 41 41 40 40 40 39 38 38 37 37 37 37 37 37 37 36 35 34 33 33 32 31 30 30 29 29 28 27 27 27 26 25 25
31 30 29 29 30 31 30 30 29 30 30 30 30 30 30 30 30 31 31 32 33 33 33 33 34 35 36 37 39 40 41 41 42 43 43 43 42 42 41 41 41 40 39 38 38 38 38 38 38 37 37 37 36 35 34 33 32 31 31 30 30 29 29 28 28 27 26 26 26
32 31 31 31 32 32 32 31 31 31 32 32 31 31 31 31 31 31 32 32 33 34 34 35 35 35 36 37 39 40 41 41 42 43 43 43 43 42 42 42 42 41 40 39 39 39 39 39 37 37 37 37 37 36 35 34 33 32 31 31 30 29 29 29 28 28 27 26 26
33 33 32 32 33 34 35 34 33 33 33 33 32 31 31 32 32 32 32 32 33 35 37 38 37 36 36 37 38 39 40 41 42 42 43 44 43 42 42 42 42 42 41 40 40 40 40 38 37 36 36 36 36 35 35 34 33 32 31 31 30 30 29 29 28 28 27 27 26
34 34 34 33 34 35 35 35 35 35 34 33 33 32 33 32 32 32 32 33 34 35 37 38 38 37 36 37 38 39 40 40 41 42 43 43 43 42 42 42 42 42 41 41 40 40 39 38 36 34 34 34 34 34 33 33 33 32 32 31 30 30 29 28 28 28 27 27 26
35 35 35 34 34 35 35 35 35 36 35 35 34 35 35 34 34 34 35 35 34 35 36 37 38 38 37 37 38 39 40 40 41 42 43 43 43 42 41 42 42 42 41 40 39 38 37 36 34 32 31 31 31 32 32 33 33 32 32 31 31 30 29 28 28 28 27 26 25
35 35 36 35 35 35 36 36 35 35 36 36 37 38 38 38 37 36 36 36 35 34 35 36 38 38 38 38 38 39 40 41 41 42 43 43 43 43 42 42 41 40 39 38 37 35 34 33 32 30 29 29 30 31 32 33 33 32 32 32 31 30 30 29 29 28 27 26 25
35 36 36 36 36 36 36 37 36 36 36 38 39 40 41 40 39 38 37 37 36 36 35 35 37 39 39 39 40 40 41 41 41 41 42 42 43 42 41 40 39 37 35 33 31 31 31 31 30 29 29 30 30 31 33 33 32 32 32 32 31 31 31 30 30 28 27 26 25
35 36 36 36 36 36 36 36 37 37 37 39 40 41 42 42 42 41 40 38 37 37 36 36 37 38 39 40 41 41 41 41 41 41 41 41 42 41 38 36 34 32 30 27 27 28 29 30 29 29 30 30 31 31 32 32 31 31 31 32 32 32 32 31 30 28 27 26 25
36 36 35 35 35 35 35 36 36 37 38 38 40 41 41 42 43 43 41 39 37 37 37 38 38 38 39 40 41 41 41 41 41 40 39 40 39 37 34 31 28 26 25 25 25 27 28 29 30 29 29 30 30 30 29 29 29 29 31 32 32 32 32 31 30 29 27 26 26
37 35 35 34 34 34 34 34 35 36 36 37 38 39 40 41 43 43 41 39 38 38 39 39 38 38 39 40 41 41 41 41 41 40 39 37 35 32 29 26 24 23 23 24 26 27 28 29 29 29 28 28 28 27 26 26 27 29 31 32 32 32 31 31 30 29 28 27 26
36 35 34 33 32 32 32 33 34 34 35 36 37 37 38 39 41 41 40 39 39 39 39 38 38 38 39 39 40 40 40 40 40 39 36 33 30 27 25 24 22 22 23 25 27 28 29 29 29 28 27 27 27 27 26 26 28 30 32 32 32 31 31 30 30 29 28 27 27
36 35 33 32 32 31 31 32 33 33 34 35 36 36 37 37 38 39 39 39 40 39 38 37 37 38 39 39 39 39 39 39 37 34 31 27 24 23 23 23 23 24 25 27 29 30 30 29 28 27 27 28 29 29 28 28 29 31 33 32 31 31 31 30 29 28 28 28 27
35 35 34 33 32 31 31 32 33 33 34 35 36 36 36 36 37 37 37 38 39 39 38 36 36 37 38 39 38 37 36 34 31 28 25 23 22 22 23 24 25 27 29 30 31 31 31 29 28 28 29 30 31 31 30 30 30 31 32 32 31 30 30 29 29 28 28 28 28
35 35 34 34 34 34 34 34 34 34 35 36 36 37 37 36 36 36 37 38 38 38 37 36 36 36 37 36 35 33 30 27 25 23 23 23 23 23 25 26 29 31 32 32 32 31 31 30 29 30 31 32 32 32 31 31 31 32 32 32 31 30 30 30 30 30 29 29 29
35 35 35 36 36 36 37 36 36 36 36 37 37 37 38 37 37 36 37 37 37 37 36 37 36 35 33 32 29 26 23 22 22 23 24 25 26 27 28 30 32 33 33 32 31 30 30 30 30 31 32 32 33 33 32 32 32 32 32 32 31 31 31 31 32 32 31 32 31
37 38 38 38 39 39 38 38 38 38 39 39 38 38 37 37 36 36 36 37 37 37 37 37 35 32 29 25 23 22 21 22 24 25 27 28 30 31 32 33 33 33 32 31 30 29 29 30 30 31 32 33 33 33 33 32 32 33 33 33 32 32 32 33 33 33 33 33 33
39 40 40 41 41 40 40 40 40 41 41 40 38 36 35 35 35 36 36 36 37 37 37 36 33 29 24 21 20 20 22 24 26 27 29 31 32 33 33 33 31 30 29 29 29 29 29 29 30 31 32 33 33 33 33 33 33 33 33 33 33 33 33 33 34 35 35 34 33
40 40 41 42 42 42 43 44 44 43 41 38 35 33 32 33 34 35 35 35 36 36 36 34 31 27 23 21 21 22 24 26 27 28 30 30 31 32 31 30 29 28 28 29 29 29 29 29 30 30 31 32 33 33 33 33 33 33 33 34 34 34 34 35 35 35 35 34 33
41 41 42 43 43 43 43 44 42 40 38 34 32 30 29 30 32 35 36 36 35 34 33 32 29 27 25 24 24 25 26 27 27 28 28 28 29 28 28 27 27 27 28 28 28 28 28 28 29 29 31 33 34 34 34 34 33 34 35 36 36 36 36 36 36 35 35 34 33
43 43 43 43 44 43 42 41 39 37 34 33 31 30 31 33 35 37 37 36 34 33 31 30 29 29 28 28 27 27 27 27 27 26 26 26 25 25 24 24 24 25 26 26 27 27 28 28 28 29 31 33 35 36 36 36 36 36 36 37 37 37 36 35 35 35 35 34 33
45 45 44 44 43 42 41 39 37 35 34 34 34 36 38 40 41 39 37 35 33 32 31 30 30 31 31 31 30 28 27 26 25 24 24 23 22 22 22 22 22 23 24 25 26 27 28 28 30 31 33 36 37 37 37 37 37 36 35 35 34 34 33 33 34 34 34 34 34
45 45 43 41 41 41 40 39 38 37 36 36 38 41 44 44 42 38 35 34 33 32 31 31 31 32 32 32 30 28 26 25 24 23 22 21 21 22 22 23 23 24 25 26 27 28 29 30 32 34 35 36 37 36 35 35 34 32 31 31 31 31 31 31 32 33 33 33 34
44 44 42 40 40 40 39 39 39 39 38 38 39 41 43 42 38 35 33 33 33 32 32 31 32 32 32 31 29 27 26 25 24 23 21 20 21 22 23 25 27 28 29 29 30 32 33 34 36 36 36 35 35 34 33 32 31 31 30 30 30 30 30 30 31 32 32 33 34
43 43 42 40 40 40 39 39 39 40 40 39 38 38 38 37 35 33 32 32 32 32 32 31 31 31 31 30 28 26 25 24 24 22 21 20 20 23 26 29 31 33 34 34 35 36 38 39 39 38 36 33 32 31 31 31 31 31 31 31 31 31 31 31 31 31 32 33 34
40 42 43 42 41 40 40 39 39 40 40 40 38 36 35 34 33 32 31 31 31 31 31 31 30 30 29 28 26 25 25 24 24 22 21 20 22 26 30 34 36 37 38 38 39 40 41 40 40 38 36 33 31 30 30 30 31 31 30 30 31 31 32 31 31 31 31 32 33
38 41 43 43 42 41 41 40 39 39 40 40 38 36 34 32 32 31 31 30 30 30 30 30 29 29 28 27 26 26 27 26 24 22 20 22 27 33 37 39 39 38 38 39 39 40 40 39 39 38 37 34 32 30 30 30 30 30 30 30 31 31 32 32 31 31 31 32 33
39 41 43 43 43 42 41 40 39 40 40 41 39 35 32 31 31 30 30 30 30 30 30 29 29 28 27 27 28 29 29 27 24 21 22 27 34 39 40 40 38 37 36 36 36 37 38 38 39 39 38 36 33 31 30 29 29 29 30 30 31 32 32 32 32 31 31 32 32
39 41 42 43 44 43 42 41 41 41 41 39 37 33 30 29 29 30 30 30 30 30 30 30 29 28 29 29 30 31 29 26 23 23 25 31 37 39 38 37 36 35 34 35 35 36 37 38 39 39 39 37 35 33 30 29 29 29 29 29 30 32 32 32 32 32 32 31 31
39 41 42 43 43 43 43 43 43 42 41 38 35 32 30 29 29 30 30 30 30 30 31 30 30 30 31 32 33 32 29 24 23 24 27 32 35 36 36 35 35 34 34 34 34 35 37 38 39 39 39 38 37 34 32 30 29 28 29 29 30 32 32 32 32 33 32 32 31
37 39 41 41 42 43 43 43 43 42 40 37 35 33 31 30 29 30 30 30 29 29 30 30 31 31 32 32 34 32 27 24 24 25 28 31 34 35 35 34 34 34 33 34 34 36 37 38 39 39 39 39 38 37 34 31 29 29 29 29 30 31 32 32 33 33 33 32 31
35 36 37 39 39 39 39 38 38 38 38 36 34 33 31 29 29 29 29 29 28 28 29 30 31 32 32 32 33 29 25 24 25 27 29 32 34 34 34 33 33 33 33 34 35 36 37 38 38 38 38 38 39 38 36 33 30 28 28 29 30 31 32 33 33 33 33 32 32
34 33 33 34 33 32 30 30 31 32 32 32 32 31 30 29 28 29 29 28 28 27 28 30 31 32 32 32 30 27 23 24 26 29 31 33 34 33 33 32 31 31 32 33 35 37 37 37 37 37 37 38 39 38 36 33 30 28 28 28 29 30 31 33 33 33 33 32 32
32 30 29 29 27 24 22 22 23 24 25 26 27 28 28 27 28 28 28 28 26 26 26 28 29 31 32 31 28 25 24 26 29 30 31 32 32 32 32 31 30 30 30 33 35 36 37 36 36 36 36 37 38 37 35 33 30 28 28 28 29 29 30 31 32 32 32 31 31
30 29 27 25 23 20 18 18 18 19 20 21 22 24 25 25 26 27 27 27 25 25 25 26 28 29 30 29 28 27 28 29 30 30 30 30 30 31 31 32 31 30 31 32 33 35 35 35 35 35 35 36 36 35 33 32 30 29 28 28 28 29 29 29 30 30 29 29 29
30 29 27 24 22 20 19 18 18 18 18 18 19 20 21 22 23 24 25 25 24 24 25 26 27 29 30 29 28 29 30 31 30 29 29 30 31 31 31 31 31 30 31 32 32 33 33 33 33 33 34 35 35 33 31 30 28 28 28 28 28 28 27 27 27 27 27 27 27
30 29 28 26 24 23 22 22 21 21 19 18 17 18 19 20 21 22 23 23 22 23 24 26 28 30 30 29 27 28 29 30 30 29 29 30 31 31 31 31 30 31 31 31 31 31 31 32 32 33 34 35 34 33 30 28 27 27 28 28 27 26 25 25 25 25 26 26 26
30 30 29 27 25 24 23 21 19 18 17 15 14 14 15 17 19 20 20 21 21 22 24 26 29 30 29 27 26 26 27 29 29 29 30 30 31 31 31 30 30 30 30 30 30 30 31 31 32 33 34 35 34 33 30 28 28 27 27 27 25 24 23 23 23 23 24 24 25
32 31 29 26 24 23 21 18 17 16 15 15 14 15 16 17 18 19 19 20 21 23 25 27 29 29 27 25 24 25 26 27 28 29 30 30 30 30 30 30 29 29 29 30 30 30 30 31 31 32 33 34 34 33 30 28 27 26 26 25 24 23 22 21 20 20 20 21 21
34 32 30 28 26 25 24 23 23 22 22 22 22 23 23 22 22 21 21 23 25 27 28 28 28 27 26 24 24 24 25 26 27 28 28 28 28 28 28 28 27 27 28 29 29 30 30 30 31 32 33 34 34 32 30 27 26 25 24 23 22 21 20 18 17 16 15 15 15
Wind_Direction
210 210 209 209 209 208 209 210 210 210 210 209 209 210 211 211 213 214 215 215 215 216 218 219 219 220 220 220 220 220 220 220 220 221 222 223 223 223 223 223 224 223 223 223 222 222 222 222 222 223 223 223 223 222 222 222 221 220 219 219 220 220 221 221 222 223 224 225 226
211 211 211 210 210 210 211 212 212 212 212 212 212 212 212 213 214 215 216 217 218 219 219 220 221 221 221 221 221 221 221 220 220 221 222 223 224 224 224 224 224 225 224 224 223 223 222 222 221 221 222 222 221 220 220 221 220 219 218 219 220 220 221 222 224 226 226 226 226
213 212 212 211 211 210 211 212 213 213 213 214 214 214 215 215 216 217 218 219 220 220 220 221 221 222 222 222 222 222 222 221 221 221 222 223 224 224 224 225 225 225 225 225 224 224 223 221 220 220 220 220 220 219 219 219 219 219 218 219 220 220 221 223 226 227 226 225 225
213 213 213 212 212 211 211 212 213 214 214 215 216 216 217 217 218 219 220 220 221 221 221 221 222 222 222 222 222 223 222 222 222 221 222 222 223 223 224 225 226 226 226 226 225 224 223 221 219 218 219 220 219 218 218 218 218 218 218 219 220 221 222 224 226 227 226 224 224
215 214 214 214 214 213 213 213 213 214 215 216 216 217 218 219 219 220 220 221 221 221 222 222 222 222 222 222 223 223 223 223 222 222 222 222 223 223 224 225 226 226 227 226 225 224 222 220 218 217 218 219 219 219 219 219 218 218 218 219 220 221 223 224 225 226 225 224 223
216 216 215 215 215 215 215 215 215 215 215 216 216 217 218 219 219 220 220 220 221 222 223 223 223 223 223 223 223 223 223 223 223 223 223 223 223 223 224 224 226 226 226 226 225 223 221 218 216 216 217 219 219 220 220 220 218 217 217 217 219 221 223 224 225 225 224 222 221
217 216 216 216 216 216 216 216 216 216 216 215 215 216 217 218 219 220 220 221 221 222 223 223 223 223 222 223 223 223 223 223 223 223 223 223 223 223 223 224 225 225 225 225 223 221 219 217 215 215 217 220 221 221 221 221 218 217 216 217 219 220 222 223 224 223 222 220 219
218 218 217 217 217 216 216 216 215 215 215 216 216 217 217 218 219 220 221 221 221 222 223 223 223 223 222 222 223 223 223 223 223 223 224 224 224 224 224 224 224 224 224 223 222 220 219 217 215 216 218 222 224 225 224 222 218 217 216 218 220 221 222 223 223 222 220 219 218
219 219 218 217 217 217 217 217 216 215 215 217 218 219 219 219 219 220 220 221 222 222 223 223 224 224 223 223 223 224 224 224 223 224 224 224 224 224 224 224 223 223 223 223 222 222 220 218 217 218 221 225 228 229 228 224 219 216 217 219 221 222 223 223 222 221 220 219 217
219 219 218 218 217 217 217 217 217 217 217 218 219 220 221 220 221 221 221 221 222 222 222 223 224 224 224 223 223 224 225 225 224 224 224 224 224 223 222 222 223 223 223 224 224 223 221 219 218 219 223 228 232 233 230 225 220 218 220 222 223 223 222 221 221 221 220 219 218
219 219 218 218 217 217 217 217 217 218 218 219 221 221 221 221 222 222 222 222 222 222 223 224 224 224 224 224 224 224 225 225 225 224 223 224 223 222 221 222 222 222 223 224 224 223 222 221 221 223 225 230 233 232 230 226 224 224 225 225 224 223 221 220 220 220 220 219 219
219 219 219 218 218 217 217 217 217 218 219 220 221 222 222 223 223 223 223 223 222 223 224 225 224 225 225 225 225 225 225 225 225 225 224 224 223 222 221 221 222 224 224 224 224 224 225 225 226 226 227 229 229 227 226 228 231 231 230 228 225 223 221 220 220 220 220 220 220
220 220 219 219 219 218 217 217 218 220 220 221 222 223 223 224 224 224 223 223 224 225 225 225 225 225 226 226 225 225 225 225 225 224 224 223 222 221 221 221 223 225 226 226 225 225 226 227 227 227 226 226 224 222 224 229 235 235 233 229 226 224 223 222 222 222 222 221 221
219 219 219 220 219 219 218 217 219 221 222 223 223 224 224 225 225 225 224 224 225 226 226 225 225 226 226 227 226 225 225 225 224 223 222 222 221 222 222 222 223 225 226 227 227 226 226 226 226 226 225 224 223 223 226 230 234 235 233 230 228 227 226 226 226 226 224 222 221
218 218 219 219 219 218 218 218 219 221 223 224 225 225 226 227 227 226 226 226 226 227 227 226 226 226 227 227 227 226 225 224 223 222 222 222 223 223 223 222 222 223 224 226 227 226 226 226 225 225 224 224 225 226 228 230 232 233 233 232 231 230 229 229 230 229 226 223 222
216 217 217 217 217 217 218 218 219 221 223 224 225 225 226 226 227 227 227 227 227 227 227 226 226 227 227 227 226 224 223 222 222 222 222 223 223 224 223 222 221 221 222 224 225 225 225 225 225 225 224 225 226 227 228 229 230 230 231 231 232 233 232 232 231 230 227 225 223
214 215 216 216 215 216 217 218 220 221 222 223 223 224 225 225 226 226 227 227 227 227 227 227 227 227 227 226 224 221 220 221 222 222 222 221 221 222 222 222 221 221 222 223 223 224 225 225 225 224 224 225 225 226 227 227 227 227 228 229 232 234 234 233 232 230 228 227 225
212 215 217 217 216 216 217 219 220 222 223 223 222 222 223 223 224 225 226 226 226 226 227 227 227 226 224 223 220 219 219 221 222 222 222 221 221 221 221 222 222 222 222 222 222 224 225 225 224 224 224 224 225 226 226 226 226 226 226 228 231 234 234 233 232 231 230 228 227
212 213 215 215 215 216 218 220 222 224 224 224 223 222 222 222 223 224 225 226 226 226 226 226 225 223 222 221 220 220 220 220 222 223 223 222 221 221 221 222 223 223 222 221 222 223 225 226 225 224 223 223 224 225 225 225 225 225 226 228 231 233 234 234 233 232 231 230 229
214 214 214 214 213 214 217 219 223 224 225 224 224 223 223 224 225 226 226 226 227 227 226 224 223 221 220 220 220 220 220 221 222 223 224 223 222 222 222 222 224 223 222 222 222 223 225 226 225 224 223 223 224 225 225 225 225 225 227 229 230 232 233 234 233 232 231 230 230
215 216 216 216 215 215 216 218 221 223 224 223 222 224 226 228 229 229 228 227 227 226 225 223 219 216 214 215 217 219 220 221 222 223 223 223 222 223 223 223 223 223 224 224 223 223 224 224 224 223 223 224 225 226 226 225 225 227 228 229 230 230 231 231 231 230 229 229 229
214 215 216 217 216 216 217 219 221 221 220 217 217 222 229 234 235 233 230 227 226 225 223 220 216 213 211 212 214 217 219 220 221 222 221 221 221 222 223 224 225 225 226 226 224 223 223 223 223 224 224 226 226 227 226 225 226 227 228 228 227 227 227 227 227 227 227 228 228
214 214 215 215 216 216 217 219 219 217 214 211 213 219 226 232 234 233 230 225 223 222 221 218 215 212 211 211 212 214 217 219 219 218 217 216 216 217 219 222 227 230 231 229 226 223 221 221 223 225 227 228 227 226 225 225 226 226 225 225 225 224 224 224 224 225 226 227 227
213 213 213 213 213 214 216 217 215 211 208 209 214 220 224 228 230 230 227 224 221 219 218 216 213 212 210 210 211 212 215 216 214 213 212 211 212 214 217 219 224 230 233 233 230 226 224 222 224 226 226 226 225 223 222 223 223 223 222 222 222 223 223 223 223 224 224 225 226
212 212 211 211 211 212 213 213 210 207 206 209 216 223 226 228 228 227 225 221 218 216 214 213 211 210 208 208 209 210 212 211 208 206 205 206 209 213 217 221 224 228 231 233 232 231 228 226 225 224 223 222 221 220 221 222 222 222 222 222 222 222 222 222 223 223 224 225 225
211 210 209 209 210 210 210 209 206 204 205 208 216 224 229 230 229 227 223 219 216 213 211 209 209 207 206 205 206 207 206 204 202 199 198 202 211 219 224 226 227 229 230 230 230 229 229 228 227 224 221 219 218 219 220 221 222 222 222 222 221 220 220 220 222 223 223 224 223
209 209 208 209 209 209 209 208 205 204 204 207 214 222 228 229 228 226 222 217 213 211 208 206 206 204 202 201 200 198 196 193 192 193 198 210 224 231 232 230 229 229 229 228 227 227 228 228 227 224 221 219 218 218 220 220 221 221 221 220 219 219 219 220 221 222 222 222 221
208 208 208 208 207 208 209 209 207 205 205 208 213 220 224 225 224 222 218 214 210 207 204 203 202 200 197 195 192 188 185 183 185 193 208 227 240 240 235 230 228 227 227 226 226 227 228 228 227 225 223 220 219 219 220 220 220 219 218 218 218 219 220 221 221 221 220 219 219
206 207 207 207 207 207 207 207 207 207 207 209 213 218 221 220 218 216 214 210 206 203 200 199 197 194 190 186 183 180 179 181 190 205 226 240 242 239 233 228 226 226 226 227 227 228 228 227 226 225 223 221 219 218 218 218 218 217 217 217 218 219 221 221 221 220 219 218 218
205 205 205 205 206 205 205 205 206 208 209 210 213 215 217 216 214 212 209 205 202 200 198 196 193 188 184 181 178 177 180 189 203 218 232 241 238 233 229 226 226 226 227 228 228 228 228 226 226 225 224 222 219 217 215 215 215 216 216 217 219 220 221 221 220 219 218 218 218
202 203 203 204 204 204 204 204 206 208 209 210 212 214 214 213 211 209 205 201 198 197 197 194 190 186 183 181 180 181 187 202 220 232 237 236 233 229 227 227 226 227 228 229 229 229 227 226 225 225 224 222 218 216 215 214 215 216 217 219 220 221 220 220 219 218 218 218 219
200 200 201 201 202 203 204 204 205 206 208 210 212 213 214 213 210 207 202 197 195 194 194 192 189 186 183 182 183 186 197 215 226 232 234 233 230 228 227 227 227 228 229 230 230 229 228 226 225 225 224 223 220 217 215 215 216 218 220 221 221 221 220 218 218 218 218 219 220
199 198 198 198 200 201 202 203 204 205 207 209 211 212 212 210 208 204 200 196 194 193 191 190 188 186 184 184 186 192 206 224 230 234 234 231 227 225 225 226 227 228 229 229 229 229 228 226 225 225 225 224 221 219 217 216 217 219 221 222 222 221 220 219 218 219 219 220 221
198 197 195 196 197 197 199 201 203 206 207 209 210 211 209 206 203 200 197 195 194 193 191 191 190 189 188 188 191 200 215 230 237 237 232 226 223 222 223 224 227 227 227 227 227 228 228 227 227 226 226 224 222 220 218 218 218 219 220 221 221 220 220 220 220 221 221 222 223
195 193 192 193 193 192 194 198 201 204 206 206 207 206 203 200 197 195 193 192 191 190 190 191 192 192 193 194 201 213 227 235 235 230 224 220 220 221 222 223 226 226 226 226 226 227 228 228 228 227 226 223 220 218 218 218 218 219 219 220 220 220 220 221 222 222 223 223 224
189 187 185 185 185 184 184 187 188 190 192 194 195 195 193 191 190 190 189 187 186 186 187 190 192 194 196 201 211 223 232 235 232 226 222 220 220 222 223 224 225 225 225 225 226 227 227 228 228 227 225 221 218 216 216 216 217 217 218 218 219 220 221 222 223 223 224 225 227
183 181 179 177 175 173 170 167 164 162 164 169 174 177 179 181 183 184 184 182 181 183 187 191 195 198 203 210 218 229 235 235 231 226 223 222 223 223 224 225 224 224 224 224 225 226 227 227 227 225 222 218 215 214 214 214 214 214 215 216 218 220 221 222 222 223 224 226 229
178 177 175 172 169 164 158 152 147 144 143 146 152 160 167 172 175 178 180 182 184 188 193 198 202 206 211 217 226 236 241 237 232 228 226 225 225 225 224 224 224 223 223 224 225 226 227 227 226 224 220 216 213 212 211 210 210 211 212 214 215 217 218 219 220 222 224 227 230
172 172 170 167 164 160 156 152 150 149 148 150 154 162 170 175 179 182 186 193 201 206 210 212 213 214 218 225 234 241 242 239 235 231 228 228 228 227 224 223 223 223 223 224 225 226 227 227 225 222 219 217 214 212 210 208 209 209 209 210 210 212 214 217 219 222 226 230 235
167 168 168 169 168 169 171 177 184 189 191 194 198 202 203 201 201 202 207 214 223 228 229 226 223 222 226 233 239 242 241 237 234 231 229 228 230 228 225 223 223 223 224 225 226 226 227 226 224 222 219 217 215 212 209 206 206 206 206 206 206 208 212 216 221 225 230 235 240
169 172 175 179 183 186 190 195 200 205 208 210 211 212 212 211 212 217 224 231 237 238 236 231 227 228 232 238 240 238 234 231 228 226 225 225 225 225 224 223 223 224 225 226 227 227 226 225 223 221 219 216 214 211 207 203 203 204 204 204 206 208 212 216 220 224 227 229 229